Wind_Speed
7 9 10 9 10 11 11 13 16 17 17 18 19 20 20 20 20 19 20 25 29 29 29 29 29 29 28 27 25 22 20 20 20 20 19 17 16 15 16 15 13 13 12 11 11 11 11 11 11 11 12 11 10 10 9 9 9 9 9 11 11 11 10
5 7 9 9 9 10 12 14 15 16 17 18 18 19 20 20 20 20 20 25 30 30 30 31 31 31 29 28 26 24 23 22 22 21 19 17 16 16 16 15 14 14 13 12 12 12 12 11 11 12 12 12 11 11 10 9 10 10 10 11 11 11 10
3 5 6 8 9 9 11 12 15 16 14 13 12 13 15 17 19 23 24 25 28 29 29 30 31 31 30 29 28 27 25 24 23 22 19 17 16 15 16 16 15 14 13 13 13 13 12 12 12 12 12 12 12 12 11 10 10 10 10 11 10 10 10
2 3 5 6 7 8 9 11 14 13 11 12 14 13 14 14 16 21 24 25 26 27 28 29 30 30 30 30 28 27 27 26 24 22 19 17 16 15 15 15 15 15 14 14 13 13 13 13 13 13 12 12 12 12 12 11 11 10 10 11 11 11 12
3 2 3 4 6 6 7 10 13 14 15 18 19 17 17 17 16 18 20 21 23 25 27 28 26 25 28 29 27 26 26 26 25 23 20 18 18 17 16 15 14 14 15 14 14 15 14 13 13 12 13 12 12 12 12 12 12 12 12 12 12 13 12
4 3 2 2 4 5 7 9 11 14 17 20 22 21 18 18 19 19 19 18 18 20 22 23 22 23 27 28 25 24 25 25 26 25 23 21 20 18 16 15 14 13 14 14 15 15 14 14 13 12 12 11 11 10 10 12 12 13 14 14 14 13 12
4 4 3 1 1 2 5 7 10 12 14 18 23 23 18 17 19 19 19 19 20 19 18 20 20 21 25 26 25 26 26 24 25 26 23 21 20 18 17 16 16 15 14 15 16 15 14 14 14 13 12 11 11 11 12 13 14 14 15 16 16 15 14
5 4 3 2 1 1 2 4 8 11 13 16 20 20 19 18 18 17 19 21 22 21 20 21 20 21 25 27 28 28 27 23 23 24 24 21 19 19 18 17 17 18 17 16 15 15 15 14 13 13 12 12 12 14 14 15 16 16 16 17 17 15 14
4 4 3 3 2 1 1 3 5 9 12 15 18 20 21 20 17 17 18 19 21 23 24 23 21 23 28 30 30 30 27 23 22 22 23 21 20 20 19 17 17 19 19 16 14 14 15 14 13 13 14 14 15 16 16 16 17 16 17 18 18 16 14
4 4 4 3 3 1 1 3 4 7 9 12 14 16 18 18 17 16 17 19 22 26 29 27 24 24 28 29 29 27 25 24 23 21 21 21 21 21 20 19 18 18 19 18 15 14 14 14 14 15 16 16 17 18 17 17 18 17 17 18 18 18 17
4 5 5 4 3 2 1 2 4 6 7 9 10 11 12 14 15 14 16 18 21 25 30 30 27 26 27 27 25 23 23 24 23 21 21 22 22 21 21 21 19 19 19 19 18 16 14 15 17 17 17 18 18 19 19 19 19 19 19 19 18 18 17
4 4 5 6 5 3 2 2 3 5 6 8 8 9 10 11 12 12 14 16 18 21 26 28 26 25 27 27 24 22 23 23 22 22 23 24 25 23 21 20 20 19 19 19 19 18 15 16 19 20 19 19 19 19 20 20 20 21 21 20 19 19 18
3 3 4 5 5 4 3 2 3 4 5 7 8 10 10 11 12 12 12 14 15 16 20 24 25 26 27 25 24 23 23 23 23 23 23 24 27 27 24 21 20 19 19 19 19 19 17 16 20 22 21 20 20 19 19 20 21 21 20 18 19 18 17
2 2 2 3 4 4 4 3 3 3 4 5 7 9 10 13 15 16 15 16 16 14 15 18 21 26 28 24 22 24 26 25 23 23 24 26 29 29 27 23 21 19 19 18 18 19 18 17 18 20 20 20 20 18 19 20 20 20 17 17 18 17 17
1 2 2 3 4 5 5 5 5 5 5 5 6 7 8 10 13 16 18 20 20 18 16 15 16 22 26 25 24 27 29 29 27 26 27 29 29 29 29 27 24 20 19 18 18 18 17 17 17 17 17 19 19 18 18 19 20 19 16 15 15 16 16
2 3 3 3 4 5 6 6 6 7 8 7 7 7 7 7 8 11 15 17 19 20 19 16 16 18 22 25 28 31 31 31 31 30 30 29 29 30 30 29 25 21 20 19 19 18 16 17 18 17 16 17 19 19 19 20 20 18 17 15 14 16 16
3 3 3 4 4 5 6 7 7 8 9 9 8 8 8 8 8 9 10 12 14 17 19 18 17 19 21 24 28 31 31 30 30 30 30 30 30 29 29 29 26 23 22 21 20 19 19 18 18 18 17 16 17 18 17 18 19 19 18 16 14 15 14
3 4 4 4 5 5 6 7 8 9 10 10 9 9 9 9 9 9 9 10 11 12 15 17 18 19 21 23 26 28 30 29 28 28 29 29 30 30 29 29 27 25 24 23 21 20 19 18 18 19 19 17 17 16 13 15 18 18 16 14 13 14 12
3 4 5 5 5 6 7 8 9 10 11 11 10 10 10 9 9 10 10 10 10 10 12 15 17 18 20 21 23 24 26 27 26 26 27 29 29 30 29 27 26 26 25 23 21 19 19 19 18 19 20 18 18 16 14 16 18 17 15 14 14 14 14
3 4 5 6 6 7 8 9 10 10 11 11 11 11 11 10 10 10 10 10 9 9 11 13 16 18 19 21 21 23 25 26 26 26 27 28 29 28 27 27 27 26 24 21 19 19 20 20 19 19 19 18 18 18 17 18 17 14 13 13 13 14 15
3 4 5 6 7 8 9 10 11 11 11 11 12 12 11 11 11 10 11 11 10 10 11 12 15 17 19 20 21 23 24 25 26 27 26 26 26 25 25 25 25 23 21 19 19 20 22 21 18 17 19 19 17 17 17 17 16 14 12 11 10 12 12
3 4 5 7 8 9 10 11 12 12 11 11 12 12 12 12 11 10 10 10 10 12 13 13 15 16 18 19 19 21 23 25 26 26 25 24 24 23 23 23 23 22 22 21 20 21 21 20 18 18 19 18 17 17 16 16 15 14 12 10 9 8 9
4 5 6 8 9 10 11 12 11 11 12 12 13 13 13 12 12 11 11 11 10 11 12 14 15 16 17 18 19 19 22 24 25 26 25 25 26 26 25 27 27 26 25 23 21 20 20 19 19 18 17 17 16 16 16 14 13 13 11 9 7 6 8
5 6 7 9 10 11 12 11 11 12 13 14 14 14 14 14 14 13 12 11 11 11 12 13 14 15 17 18 19 19 21 23 25 26 26 28 29 29 28 29 28 26 25 24 21 20 19 18 17 17 16 16 16 16 15 13 11 9 8 7 6 6 7
5 6 7 9 10 11 11 11 12 13 13 13 14 15 15 14 13 12 12 12 12 12 13 14 15 17 19 21 20 19 20 22 24 25 26 29 30 29 26 26 24 23 23 24 22 20 19 17 17 17 16 16 16 14 12 10 8 5 4 3 4 6 7
5 6 7 9 9 10 11 11 12 13 13 13 15 16 14 13 12 12 13 13 14 14 14 16 16 17 19 22 23 21 19 20 22 24 25 27 29 29 27 26 25 24 23 23 23 21 20 19 19 19 18 16 15 13 11 9 7 5 3 1 2 4 6
5 5 7 8 8 9 11 11 12 12 12 13 14 14 13 13 13 14 14 14 15 16 16 16 17 17 18 21 22 22 20 19 21 22 22 23 25 27 27 26 26 25 24 23 23 23 24 23 21 19 19 18 16 14 11 9 7 7 5 3 3 3 6
5 5 6 8 8 9 10 11 11 12 12 12 13 13 13 12 13 14 14 15 16 18 18 18 19 18 19 19 22 24 23 21 23 23 21 20 21 21 23 24 25 26 26 26 26 28 26 22 19 19 19 18 17 16 14 11 9 8 8 7 6 6 7
4 5 6 7 8 9 9 10 10 10 11 12 13 12 12 11 12 13 13 14 17 19 20 20 19 18 18 19 20 24 25 24 24 23 21 21 20 20 21 22 21 24 26 27 28 28 24 19 17 17 18 17 16 16 16 15 13 12 12 11 10 11 13
3 4 5 6 7 8 8 8 8 9 10 11 12 12 10 10 11 12 13 14 17 18 19 18 16 14 15 16 18 21 24 24 24 24 23 22 22 22 24 24 23 25 26 25 24 22 20 17 17 20 23 23 21 19 19 19 17 16 15 14 16 18 21
2 3 4 4 5 6 6 6 6 8 9 11 11 11 9 9 10 11 13 14 15 15 15 15 14 12 12 14 15 18 21 21 21 22 23 24 25 27 28 28 28 27 25 23 22 23 22 19 20 25 27 25 22 20 20 21 20 19 18 17 19 21 22
1 2 3 3 5 5 5 5 6 7 8 10 11 10 9 9 9 10 11 12 12 11 11 9 8 7 6 7 9 12 15 17 17 16 19 24 27 28 31 33 32 30 27 25 25 27 28 26 25 26 25 23 21 20 20 22 22 21 20 20 20 21 21
1 2 3 3 4 4 4 5 6 6 8 9 10 10 10 9 9 10 10 10 9 9 8 7 7 8 8 7 4 3 6 9 10 11 12 14 14 17 22 28 30 29 28 28 29 29 29 30 28 25 24 24 24 22 20 20 21 20 20 21 21 21 22
2 2 3 3 4 4 5 5 5 5 7 8 8 9 10 11 11 11 11 11 9 8 8 12 14 15 17 18 17 16 16 16 18 22 24 23 21 19 16 18 25 30 27 25 29 31 31 30 30 28 27 26 27 26 21 17 18 19 18 19 20 21 23
3 3 4 4 4 5 6 5 4 6 7 7 7 9 11 13 13 12 11 11 11 10 13 16 17 19 21 24 25 26 27 27 27 31 34 35 34 31 24 18 24 34 33 27 28 33 34 34 33 31 29 26 26 27 24 18 17 17 16 17 18 20 22
4 5 5 5 5 6 6 5 5 6 6 7 8 9 11 14 14 13 12 12 13 15 17 19 21 23 24 26 28 30 31 31 31 33 36 38 39 40 34 26 26 35 39 35 31 31 33 35 34 31 28 25 24 24 22 18 17 16 16 16 17 18 19
6 6 6 5 6 6 6 6 7 7 7 7 8 10 12 14 15 16 15 14 14 16 18 19 22 25 26 28 30 32 32 33 32 32 36 38 38 40 39 33 31 34 36 34 31 28 27 30 31 28 25 24 23 22 19 16 15 14 14 15 15 16 18
6 6 5 5 6 6 6 7 9 9 10 9 9 10 13 16 16 16 18 17 16 18 19 20 22 24 26 27 30 32 34 34 33 32 35 38 37 36 35 34 34 33 30 28 27 25 25 27 28 27 24 23 23 22 20 18 16 15 15 14 14 15 17
Wind_Direction
232 218 214 209 202 200 198 198 199 198 194 192 194 196 195 195 194 193 195 201 207 211 212 211 211 213 216 220 222 223 224 223 224 229 232 235 238 236 236 235 231 233 232 231 235 239 243 244 239 239 242 247 250 251 253 255 255 256 253 251 251 254 257
234 223 215 212 207 202 198 196 198 201 200 197 196 195 195 194 193 194 197 202 207 211 213 214 214 215 217 219 221 221 221 221 224 228 232 238 244 244 241 240 239 243 244 243 245 249 251 251 247 246 246 247 251 252 254 256 256 255 256 257 257 258 263
250 238 223 215 209 205 199 193 198 205 203 194 190 196 202 199 196 199 201 203 208 211 213 215 216 217 218 218 219 220 220 222 224 227 231 236 244 246 244 245 246 248 249 250 253 256 256 255 251 248 248 249 251 252 255 259 261 261 259 261 261 259 263
289 254 239 226 213 208 201 195 197 192 179 174 179 193 209 209 206 206 206 206 207 210 213 217 218 218 219 219 218 218 220 223 225 226 228 232 239 242 243 246 248 248 249 252 257 260 259 257 255 252 251 253 255 256 260 263 267 267 265 264 262 259 262
335 288 248 229 213 206 202 197 189 176 172 180 187 196 206 208 209 211 212 211 210 212 215 217 217 216 219 220 218 219 221 224 225 226 226 231 237 240 240 242 244 247 251 255 260 262 259 255 253 252 253 257 260 261 263 266 269 270 268 266 264 264 263
351 341 308 243 213 202 199 194 184 180 181 185 193 204 208 206 208 209 211 211 211 215 217 216 214 215 220 220 218 220 222 224 226 227 227 231 235 235 235 238 241 244 250 255 260 260 255 251 250 250 252 255 257 257 259 262 263 264 266 267 268 268 264
357 358 353 327 242 217 201 190 183 185 185 187 199 208 208 206 209 208 205 204 207 212 216 217 216 216 220 221 220 222 224 225 226 226 226 228 230 230 231 235 240 244 249 255 259 257 251 250 252 252 253 254 255 256 258 261 262 262 264 268 272 275 273
3 358 0 7 328 257 215 196 187 188 188 189 200 207 207 208 211 207 205 205 206 209 212 218 218 217 221 222 223 225 226 225 225 225 225 223 224 228 230 233 239 244 249 252 255 253 250 250 252 254 258 260 261 261 262 265 268 269 269 270 273 275 273
360 356 3 9 352 291 216 210 201 200 199 196 201 206 207 209 209 207 207 206 205 208 211 214 214 218 224 225 226 228 227 225 224 225 224 223 224 228 230 233 237 242 246 246 247 248 247 247 249 256 265 267 266 267 269 273 276 276 273 272 273 273 270
350 347 351 8 13 4 243 217 210 215 214 209 211 212 209 208 209 209 208 207 209 214 218 218 216 221 226 226 226 227 226 226 226 224 223 223 226 229 231 233 235 239 242 242 242 243 243 245 249 259 267 269 270 273 276 280 281 280 276 273 272 273 271
350 344 343 355 17 23 330 243 224 222 220 217 222 225 219 216 217 217 214 213 214 218 222 222 220 221 224 224 222 221 222 226 226 225 224 225 227 229 231 233 234 237 240 240 239 239 239 244 252 260 266 269 273 276 279 281 282 279 276 273 272 273 272
354 354 349 349 356 6 354 284 245 231 225 223 227 230 231 229 229 230 228 224 221 220 223 223 221 221 222 220 218 218 220 223 224 225 226 228 230 231 231 232 234 235 238 237 237 238 237 242 254 261 265 269 273 275 278 280 280 279 276 274 276 277 274
352 2 353 345 346 348 346 323 282 256 235 227 226 227 230 233 234 236 237 235 233 228 225 223 222 224 226 221 217 219 221 221 222 225 226 229 234 236 233 232 233 235 236 235 235 236 236 240 252 261 266 268 270 271 275 280 281 279 279 281 282 280 277
337 355 346 340 343 345 349 346 326 303 277 254 241 232 229 230 234 238 240 240 240 238 232 226 221 223 227 224 218 220 223 223 222 223 226 231 236 239 237 234 234 234 235 235 233 236 236 236 246 257 263 265 266 267 275 281 280 277 281 287 287 285 284
288 310 323 335 344 350 355 354 350 341 327 309 288 269 252 240 236 238 241 241 241 241 237 230 220 219 222 223 223 226 228 228 226 225 230 233 235 238 239 238 236 234 233 234 235 237 237 236 241 248 253 259 262 264 272 278 277 278 283 286 288 289 284
270 285 297 319 334 343 347 350 353 351 345 340 330 316 298 281 262 248 244 243 241 240 238 234 228 222 220 222 227 231 232 231 230 230 231 234 235 237 238 238 236 232 231 233 235 236 234 235 241 243 243 250 257 262 269 273 276 280 278 273 274 274 270
272 282 295 312 324 329 332 338 345 346 344 342 337 332 323 310 297 277 262 252 243 239 238 235 231 226 223 224 229 233 233 232 232 231 232 232 233 235 236 237 235 232 232 232 233 234 234 236 240 242 240 241 250 256 262 266 270 273 271 269 267 262 259
271 290 302 312 315 318 324 330 335 337 336 333 329 327 327 322 313 301 285 270 258 248 242 236 232 230 227 227 229 230 231 230 229 230 231 231 232 233 234 235 234 233 233 233 231 232 234 235 235 239 241 241 246 248 246 253 262 265 263 264 262 255 254
267 286 296 306 311 314 322 325 328 331 330 328 326 324 325 324 318 312 303 288 273 261 251 242 237 234 232 230 228 228 228 228 227 227 229 231 232 232 231 231 231 233 232 231 230 228 230 233 234 238 242 241 242 242 236 243 255 258 254 257 261 257 255
262 283 290 299 306 310 317 322 324 325 324 325 326 326 324 322 320 318 315 306 290 270 256 249 245 242 238 235 230 228 228 227 226 226 228 230 230 229 227 226 229 231 230 228 225 224 229 233 232 235 239 238 237 238 238 243 248 247 244 247 252 249 245
259 280 289 301 308 312 318 322 322 322 323 327 329 328 323 318 318 318 314 311 303 286 268 254 247 245 244 241 235 231 229 227 226 226 226 226 226 225 223 224 225 226 226 224 223 225 231 232 228 229 235 235 233 232 235 241 245 245 239 233 233 233 229
257 276 292 303 308 314 318 320 322 326 331 332 327 324 321 318 317 314 310 307 301 291 282 269 257 248 245 244 241 235 230 227 225 225 223 221 220 219 219 220 220 221 225 227 228 229 230 228 225 227 229 228 227 227 230 236 242 243 240 234 225 213 207
253 275 294 300 304 312 317 322 330 333 331 326 322 321 320 318 314 310 304 298 294 289 282 274 267 258 251 247 244 240 235 230 226 223 221 219 218 217 218 219 220 220 222 224 226 228 226 223 221 220 218 218 219 220 221 226 234 237 238 240 230 202 196
257 278 292 298 304 312 321 333 338 331 325 322 322 323 321 317 314 309 301 292 287 282 276 271 266 263 257 251 246 242 238 233 229 226 222 219 219 217 217 220 221 219 218 217 218 219 217 213 207 200 199 204 206 206 208 211 218 227 234 239 224 191 181
265 277 292 304 309 314 325 334 330 325 327 327 325 324 322 317 313 308 301 295 289 280 271 265 260 257 256 252 248 244 239 235 233 229 222 218 218 216 215 215 216 215 215 212 208 204 198 193 187 181 184 191 191 189 193 193 194 205 220 231 213 187 176
266 276 301 316 321 324 327 328 327 330 334 329 325 324 322 318 314 309 303 302 296 286 274 266 261 259 257 255 250 245 241 237 233 229 223 219 217 215 214 212 212 212 208 199 194 191 186 182 180 176 176 176 172 168 170 170 161 149 140 136 170 186 184
265 281 310 321 326 330 328 327 333 336 331 325 325 326 325 323 318 311 308 307 300 294 289 282 274 264 258 255 250 243 238 233 230 228 224 220 218 215 212 211 211 209 200 189 184 181 177 175 172 164 157 154 150 145 143 143 137 123 109 101 117 158 184
274 293 317 324 330 336 334 333 337 332 326 328 332 332 330 327 320 314 312 307 300 298 299 297 288 275 263 255 248 242 236 229 227 227 224 220 216 210 207 209 209 204 196 186 178 173 168 165 160 151 142 137 135 132 128 125 123 119 115 114 125 151 170
290 305 321 328 334 341 338 335 335 331 330 336 338 337 337 334 326 322 317 308 303 304 302 297 293 285 271 257 246 242 238 231 225 223 220 215 210 204 200 198 196 192 185 176 169 164 159 154 147 139 129 121 120 123 125 124 123 121 121 122 128 138 144
292 309 325 332 336 340 336 333 336 335 338 344 345 344 346 343 335 330 324 317 313 313 306 295 290 288 274 258 246 240 237 232 225 220 216 210 201 195 192 189 184 181 175 168 162 154 147 145 141 130 122 119 120 121 123 126 128 127 125 128 132 137 140
301 322 334 340 341 342 339 340 345 342 344 352 355 354 354 354 349 342 335 329 327 326 318 297 281 279 271 257 246 237 232 228 224 219 213 204 197 192 188 181 176 172 167 161 153 142 134 134 134 127 123 122 122 122 122 125 127 128 128 130 134 140 144
316 353 354 354 356 353 353 0 3 358 356 359 2 3 4 4 4 358 348 343 343 343 336 315 288 284 282 263 247 235 224 217 213 207 197 193 194 193 185 177 171 166 160 152 144 137 132 130 128 126 122 121 122 123 123 124 124 125 127 129 132 136 139
70 35 22 20 17 16 23 26 21 12 6 5 7 12 16 16 16 16 11 5 1 359 6 29 54 65 67 71 80 133 174 176 163 144 139 150 159 163 166 166 161 153 147 142 136 131 128 128 127 125 121 121 122 121 120 124 128 131 134 134 134 137 137
90 64 54 57 48 45 53 48 33 23 19 18 20 26 33 35 35 35 35 29 21 25 49 66 74 78 80 82 86 88 91 97 103 103 101 99 97 97 110 131 133 127 123 127 129 127 124 123 122 120 120 123 123 121 121 126 131 135 141 143 144 146 145
93 91 88 81 69 69 73 58 30 28 32 31 31 36 41 43 44 45 47 45 48 59 70 75 78 79 81 84 88 90 89 88 89 94 97 96 93 87 78 84 110 115 112 111 116 119 119 117 116 117 121 125 124 122 126 132 132 136 147 151 151 152 151
117 117 107 94 91 89 77 49 28 32 34 33 40 47 47 47 50 55 57 56 64 73 78 80 81 82 84 87 88 90 90 89 88 91 93 94 94 93 88 82 92 103 106 106 108 113 116 116 115 116 122 126 124 121 124 131 138 146 156 159 159 159 157
132 129 117 104 103 97 73 52 45 40 29 29 43 54 56 53 54 61 67 69 72 75 78 81 83 84 86 90 92 92 91 90 90 93 94 94 95 97 97 94 90 93 99 104 108 112 115 115 114 116 117 118 117 116 118 124 134 144 151 157 163 166 167
139 139 127 115 115 105 81 69 65 55 45 42 47 55 63 64 60 64 75 83 85 82 81 82 85 87 90 92 94 95 94 94 94 94 96 97 97 97 98 97 93 90 93 101 108 113 114 112 112 113 112 108 107 110 114 117 120 123 127 133 140 147 156
Height
779 779 779 779 780 782 783 784 786 789 791 793 795 797 800 802 804 806 808 810 811 813 815 817 819 820 822 824 826 828 829 831 832 834 835 836 837 838 839 840 841 842 843 843 844 845 845 846 847 847 848 848 849 849 850 850 850 851 851 851 852 852 852
779 779 778 778 779 780 781 783 785 787 788 790 793 796 798 800 802 804 806 808 809 812 813 815 817 818 820 822 824 826 828 829 831 832 834 834 836 836 837 839 839 840 841 842 843 843 844 845 845 846 846 847 847 848 848 849 849 850 850 850 851 851 851
780 779 778 777 777 778 779 781 783 785 787 790 792 796 798 799 800 802 804 806 808 810 812 813 815 816 818 820 822 824 826 827 829 830 832 833 834 835 836 837 838 839 839 840 841 842 842 843 844 844 845 846 846 847 847 848 848 849 849 849 850 850 850
780 779 777 777 776 777 778 780 782 784 786 788 790 793 797 799 800 802 803 804 806 808 810 811 813 815 817 818 820 822 823 825 827 828 830 831 833 834 835 835 836 837 838 839 840 840 841 842 842 843 844 844 845 846 846 847 847 848 848 848 848 848 848
780 778 778 778 777 777 777 778 780 782 784 786 788 791 793 796 799 800 802 804 805 806 807 809 812 813 815 816 818 820 821 823 824 826 828 829 831 832 833 834 835 836 837 837 838 839 839 841 841 842 843 843 844 845 845 846 846 846 847 846 847 847 847
781 780 780 779 778 777 776 777 779 780 783 785 788 790 791 793 795 797 800 802 804 806 807 809 811 811 813 814 816 817 819 821 822 824 826 827 829 830 831 832 833 834 835 836 837 837 838 839 840 841 841 842 843 844 844 844 844 844 844 844 845 845 845
782 782 781 780 779 778 777 777 779 780 783 785 785 787 789 791 793 794 797 798 801 804 806 808 809 810 811 812 814 815 816 818 819 821 823 825 826 828 829 830 831 832 834 834 835 836 836 837 838 839 840 841 841 842 842 842 842 842 842 842 843 843 843
784 782 781 780 779 778 778 778 779 780 782 784 784 785 787 789 791 792 794 795 797 800 802 805 807 808 809 810 812 813 814 816 817 819 821 822 824 825 826 828 829 830 831 832 833 834 835 836 837 837 838 839 839 840 840 840 840 840 841 841 841 841 842
784 783 781 781 779 778 779 779 780 781 781 782 783 783 785 786 788 790 791 792 794 796 798 800 803 805 806 808 809 811 813 814 816 817 818 820 821 822 824 825 826 827 829 830 831 832 833 834 835 836 836 837 837 837 838 838 838 839 839 839 839 839 839
785 784 782 781 780 779 779 779 780 780 780 782 782 782 783 784 786 787 788 790 792 793 795 797 799 801 803 806 807 809 811 812 813 815 816 817 818 820 821 823 824 825 826 828 829 830 831 832 833 833 834 834 835 835 836 836 836 837 837 837 837 837 837
786 785 783 782 781 780 780 779 779 779 780 781 781 782 783 783 785 786 787 789 789 791 793 794 796 798 800 802 805 806 808 809 811 812 813 814 815 817 818 820 821 822 823 825 826 827 829 829 830 831 831 832 833 833 834 834 835 835 835 835 835 835 835
787 787 785 784 783 782 781 780 779 779 779 780 780 781 782 783 785 786 787 788 789 790 791 793 794 796 797 799 801 803 805 806 808 809 810 811 812 814 815 817 818 819 820 822 823 824 826 826 827 828 829 829 830 831 831 832 833 833 833 834 834 834 834
788 787 786 785 783 783 782 780 780 779 779 779 779 779 781 782 783 785 786 787 788 789 790 791 793 795 796 797 798 800 801 803 804 806 807 808 809 810 812 813 815 816 817 819 820 821 823 824 824 825 826 827 827 828 829 830 830 831 833 835 835 834 833
787 787 786 785 784 784 783 781 780 780 779 779 778 778 779 780 781 783 784 785 786 788 789 790 791 793 794 795 796 797 797 799 801 802 804 805 806 807 809 811 812 813 815 816 817 818 820 821 822 822 823 824 825 826 827 828 828 830 832 834 834 833 833
787 787 787 786 785 784 784 783 781 781 780 779 779 778 778 779 779 780 781 782 784 785 787 788 789 790 792 793 793 794 794 796 798 799 801 802 803 805 806 808 809 811 812 814 815 816 817 818 819 820 821 821 822 824 824 825 826 827 829 830 830 830 831
787 787 786 786 786 785 785 784 783 782 782 781 780 779 778 779 779 779 779 780 781 783 784 786 787 787 789 789 790 791 792 793 794 796 797 799 800 802 803 805 806 808 809 810 812 813 814 815 816 818 818 819 820 821 822 822 823 823 825 826 826 827 828
787 786 785 785 785 785 785 784 784 784 783 782 781 780 779 779 778 778 778 779 780 780 782 783 783 784 785 786 786 788 789 790 791 793 794 795 797 799 800 802 803 805 806 807 809 810 811 813 814 814 816 816 817 818 819 819 820 820 821 822 824 826 828
787 786 785 784 784 784 784 784 783 783 783 782 782 781 780 779 778 778 778 778 778 779 779 780 780 781 782 782 783 785 786 787 788 790 791 792 793 795 797 799 801 802 803 804 805 807 808 810 811 811 813 814 814 816 816 816 816 817 819 820 823 825 826
786 785 783 783 783 783 783 783 782 783 782 782 781 780 780 779 778 778 777 777 777 777 777 778 778 778 779 779 780 781 782 784 785 786 788 789 790 792 793 795 797 798 800 801 802 804 805 806 808 809 810 811 812 813 813 813 814 815 817 818 819 821 822
784 783 782 782 781 781 781 781 781 782 781 781 780 779 779 778 778 777 777 776 776 775 776 776 776 776 776 776 778 778 779 781 782 783 784 786 787 789 790 792 793 795 797 798 800 801 801 803 805 806 807 808 809 810 811 811 812 814 815 816 817 818 819
783 782 781 781 780 780 780 780 780 780 780 780 779 778 778 778 777 777 776 775 775 774 774 774 773 774 774 774 775 775 776 777 778 780 781 782 784 786 787 789 790 792 794 796 797 797 798 800 802 803 804 806 807 808 808 809 810 812 813 815 815 816 817
782 782 781 780 779 779 779 779 779 779 779 779 779 778 777 777 776 776 775 774 774 773 772 772 771 771 771 771 772 773 773 774 775 776 778 779 781 783 785 786 787 788 790 792 794 795 796 797 799 800 802 803 805 806 806 807 808 810 811 812 814 814 816
781 780 780 779 779 779 779 779 779 779 779 778 777 777 776 775 775 774 773 773 772 771 770 770 769 769 769 769 769 770 770 771 772 773 774 776 777 779 780 782 783 784 786 788 790 792 794 795 796 797 799 801 803 804 804 805 806 807 809 810 811 812 814
779 779 779 778 779 778 778 779 779 779 778 777 776 775 774 774 773 772 771 771 770 769 769 768 767 766 766 766 766 766 767 768 769 770 771 772 773 775 777 779 780 782 782 784 786 789 791 793 795 796 798 800 801 801 802 803 804 805 807 808 809 811 812
778 778 778 778 779 778 778 779 779 778 777 776 774 774 772 771 771 769 769 768 767 767 766 765 764 763 762 762 763 763 764 764 765 767 768 768 770 772 774 776 778 780 780 781 783 786 789 791 793 795 797 798 799 800 801 802 803 804 805 806 808 809 810
777 778 778 778 779 779 778 779 778 777 776 775 773 771 770 769 768 767 766 765 764 764 763 762 760 759 758 758 759 759 761 761 762 763 764 765 767 769 772 774 775 777 778 779 781 784 786 788 791 793 795 797 798 799 800 801 802 803 804 805 807 808 809
777 777 778 778 779 779 779 778 777 776 775 773 772 770 768 767 766 764 763 762 761 760 759 758 757 756 755 755 754 755 756 757 759 760 761 763 765 767 770 771 772 774 776 777 779 782 785 786 788 790 793 796 797 799 800 801 801 802 803 804 806 807 808
777 777 778 779 779 779 778 778 777 776 774 772 771 769 767 766 764 763 761 760 758 756 755 754 754 752 752 751 751 751 751 752 754 756 759 761 763 765 767 769 771 772 774 775 777 780 784 785 787 789 792 795 797 799 800 801 802 802 803 804 805 806 807
777 778 778 779 779 779 778 778 776 775 774 772 771 769 767 765 763 761 760 758 756 754 753 751 750 749 748 747 747 748 748 749 750 753 755 758 760 762 765 767 770 772 773 775 777 780 783 786 788 790 793 796 799 800 801 802 802 802 803 804 806 807 809
777 779 779 779 779 779 778 778 776 775 774 772 770 768 766 765 763 761 759 757 755 753 751 749 747 746 745 744 744 745 745 747 749 751 753 755 758 760 762 765 767 770 772 775 777 780 783 786 790 792 794 796 800 802 802 803 803 803 805 806 807 809 811
778 779 779 779 779 779 778 777 776 775 773 772 770 768 766 764 763 761 759 757 754 752 749 747 746 745 744 743 742 743 744 745 747 749 751 753 755 756 759 761 764 767 771 774 776 779 783 788 791 792 793 796 799 802 804 804 804 805 806 808 810 811 813
779 780 779 779 779 778 778 777 776 775 773 771 770 768 766 764 762 760 758 756 753 751 749 747 745 744 743 742 742 742 743 745 747 748 749 751 753 754 755 757 760 763 768 772 775 778 781 786 791 793 795 797 801 803 805 805 806 808 809 810 812 814 816
779 779 780 780 779 778 778 777 776 775 773 772 770 768 766 764 762 760 758 755 753 752 749 747 745 744 743 743 743 743 744 745 747 748 749 751 753 755 757 757 758 761 766 770 774 777 780 784 790 794 796 799 801 803 805 806 807 810 812 812 814 816 818
779 779 780 780 779 779 778 777 776 775 773 772 770 768 767 764 762 760 758 755 754 752 750 749 747 746 745 745 744 745 746 747 748 749 751 753 756 759 762 764 762 764 769 774 775 777 780 784 787 791 796 799 800 801 805 809 810 811 814 815 816 819 820
779 780 780 780 779 779 778 777 776 775 774 773 771 769 767 765 763 761 758 757 756 754 753 752 750 749 749 748 748 748 749 750 752 753 754 756 758 762 768 772 769 766 770 777 779 779 782 785 787 790 796 800 800 800 804 809 811 812 815 816 818 820 822
779 780 780 780 780 779 778 778 777 776 775 773 771 770 768 766 764 762 760 759 758 757 757 756 754 753 753 752 752 753 754 755 757 759 759 760 762 764 772 780 779 771 770 777 783 786 788 789 790 793 797 800 801 801 804 808 810 813 816 817 819 822 823
779 780 780 780 780 779 779 778 777 777 776 774 773 771 769 768 767 765 763 762 761 761 761 760 758 758 758 757 757 758 758 760 762 764 764 765 767 769 774 782 784 778 777 782 787 792 793 792 792 795 799 800 800 802 805 808 811 814 816 818 819 822 823
779 780 780 780 780 780 779 778 778 778 777 775 774 773 771 770 769 768 766 764 764 764 764 764 764 764 764 764 763 762 762 765 768 770 770 770 773 776 778 782 784 784 786 791 794 796 797 796 795 798 800 801 802 804 807 811 813 815 817 818 820 821 823